[[{"header":{"parameterUnit":"m.s-1","parameterCategory":1,"la1":30.2992,"la2":30.254,"lo1":-89.0895,"lo2":-89.0443,"dy":0.0025,"dx":0.0025,"nx":19,"ny":19,"refTime":"2026-05-12T21:00:00:Z","depth":0,"parameterNumber":2,"parameterNumberName":"U-component_of_WINDS"},"data":[0,0,0,-2.2558,-2.2565,-2.2952,-2.2954,-2.3401,-2.3404,0,0,0,0,0,0,0,0,0,0,0,-2.2405,-2.2407,-2.2557,-2.2566,-2.2952,-2.2954,-2.34,-2.3404,0,0,0,0,0,0,0,0,0,0,0,-2.2404,-2.2406,-2.2408,-2.2567,-2.2952,-2.2955,-2.3399,-2.3127,0,0,0,0,0,0,0,0,0,0,-2.276,-2.258,-2.2406,-2.2408,-2.2569,-2.2951,-2.2955,-2.3115,-2.3144,-2.3202,0,-2.3235,0,-2.3325,-2.343,-2.3431,0,0,0,-2.2597,-2.2555,-2.2692,-2.2408,-2.2572,-2.2951,-2.2787,-2.3132,-2.3164,-2.324,-2.3242,-2.326,-2.3333,-2.3433,-2.3435,-2.3641,-2.364,0,0,-2.2576,-2.2457,-2.2669,-2.2712,-2.2639,-2.2774,-2.2798,-2.3152,-2.315,-2.3244,-2.3272,-2.334,-2.3435,-2.3438,-2.3641,-2.3641,0,0,0,-2.2493,-2.244,-2.2571,-2.2692,-2.2764,-2.2784,-2.2813,-2.3135,-2.3187,-2.3277,-2.3345,-2.3437,-2.3442,-2.3642,-2.3641,-2.3493,0,0,0,-2.2482,-2.2392,-2.256,-2.2491,-2.2756,-2.2953,-2.2785,-2.3162,-2.3206,-2.3343,-2.3438,-2.3446,-2.3643,-2.3642,-2.3499,-2.3444,0,0,0,-2.2393,-2.2383,-2.2424,-2.2484,-2.2644,-2.295,-2.3023,-2.3174,-2.3246,-2.3432,-2.3447,-2.3643,-2.3642,-2.3504,-2.3453,-2.3459,0,0,0,-2.2267,-2.2294,-2.242,-2.2479,-2.264,-2.2853,-2.3022,-2.319,-2.3331,-2.3439,-2.3643,-2.3641,-2.3505,-2.3458,-2.3463,-2.344,-2.3419,0,0,-2.2236,-2.2286,-2.2331,-2.2454,-2.2611,-2.2804,-2.2945,-2.3194,-2.3327,-2.3531,-2.3538,-2.3497,-2.3453,-2.346,-2.3352,-2.3334,0,0,0,-2.2281,-2.231,-2.2378,-2.2501,-2.2685,-2.284,-2.3078,-2.317,-2.3347,-2.3403,-2.3508,-2.3485,-2.3495,-2.3489,-2.3474,-2.3489,-2.3634,-2.3634,-2.3635,-2.2066,-2.2225,-2.2308,-2.2513,-2.2632,-2.2874,-2.2988,-2.3155,-2.329,-2.3311,-2.3371,-2.3285,-2.3274,-2.3263,-2.3277,-2.3376,-2.3375,-2.3375,-2.3375,-2.2032,-2.2097,-2.2267,-2.2407,-2.2578,-2.2703,-2.2939,-2.3029,-2.3173,-2.3254,-2.3271,-2.334,-2.3239,-2.3259,-2.3365,-2.3367,-2.3368,-2.3369,-2.337,-2.1906,-2.1964,-2.207,-2.2262,-2.2396,-2.2609,-2.2735,-2.2891,-2.3041,-2.3057,-2.3136,-2.3139,-2.3159,-2.3084,-2.3084,-2.3083,-2.3083,-2.3083,-2.3083,-2.1731,-2.1855,-2.1937,-2.2131,-2.2229,-2.238,-2.2623,-2.2728,-2.2885,-2.2989,-2.2991,-2.312,-2.3199,-2.3212,-2.3079,-2.308,-2.308,-2.308,-2.3081,-2.1631,-2.1677,-2.1803,-2.19,-2.2141,-2.2261,-2.2458,-2.2657,-2.2768,-2.2825,-2.2954,-2.2986,-2.3053,-2.3066,-2.3078,-2.2919,-2.2919,-2.2919,-2.2919,-2.1521,-2.1568,-2.173,-2.1874,-2.2036,-2.2224,-2.2369,-2.2559,-2.2767,-2.2846,-2.2893,-2.2925,-2.2931,-2.2994,-2.3009,-2.3023,-2.2853,-2.2853,-2.2853,-2.1468,-2.1536,-2.1623,-2.1815,-2.2015,-2.2184,-2.2324,-2.2491,-2.2738,-2.2853,-2.2911,-2.2914,-2.2967,-2.2976,-2.3088,-2.3107,-2.3136,0,0]},{"header":{"parameterUnit":"m.s-1","parameterCategory":1,"la1":30.2992,"la2":30.254,"lo1":-89.0895,"lo2":-89.0443,"dy":0.0025,"dx":0.0025,"nx":19,"ny":19,"refTime":"2026-05-12T21:00:00:Z","depth":0,"parameterNumber":3,"parameterNumberName":"V-component_of_WINDS"},"data":[0,0,0,-1.0276,-1.0278,-1.0398,-1.0398,-1.0534,-1.0535,0,0,0,0,0,0,0,0,0,0,0,-1.0228,-1.0229,-1.0275,-1.0278,-1.0398,-1.0399,-1.0534,-1.0535,0,0,0,0,0,0,0,0,0,0,0,-1.0228,-1.0229,-1.023,-1.0279,-1.0398,-1.0399,-1.0533,-1.0449,0,0,0,0,0,0,0,0,0,0,-1.0336,-1.0281,-1.0229,-1.023,-1.0279,-1.0398,-1.0399,-1.0446,-1.0455,-1.0472,0,-1.0483,0,-1.0511,-1.0543,-1.0543,0,0,0,-1.0287,-1.0273,-1.0316,-1.023,-1.028,-1.0397,-1.0346,-1.0451,-1.0461,-1.0483,-1.0485,-1.0491,-1.0513,-1.0544,-1.0544,-1.0614,-1.0614,0,0,-1.028,-1.0244,-1.0309,-1.0322,-1.0302,-1.0342,-1.035,-1.0457,-1.0457,-1.0486,-1.0494,-1.0516,-1.0544,-1.0545,-1.0614,-1.0614,0,0,0,-1.0255,-1.0238,-1.028,-1.0316,-1.0339,-1.0346,-1.0354,-1.0452,-1.0469,-1.0496,-1.0517,-1.0545,-1.0546,-1.0614,-1.0614,-1.0575,0,0,0,-1.0252,-1.0224,-1.0276,-1.0255,-1.0337,-1.0397,-1.0346,-1.0461,-1.0474,-1.0516,-1.0545,-1.0548,-1.0614,-1.0614,-1.0576,-1.0562,0,0,0,-1.0225,-1.0221,-1.0235,-1.0253,-1.0303,-1.0396,-1.0419,-1.0465,-1.0487,-1.0543,-1.0548,-1.0614,-1.0614,-1.0577,-1.0564,-1.057,0,0,0,-1.0185,-1.0197,-1.0233,-1.0255,-1.0302,-1.0371,-1.0419,-1.0472,-1.0516,-1.0546,-1.0614,-1.0614,-1.0578,-1.0565,-1.0571,-1.0569,-1.0564,0,0,-1.0179,-1.0195,-1.0211,-1.0247,-1.0301,-1.0356,-1.0404,-1.0478,-1.0517,-1.058,-1.0582,-1.0576,-1.0564,-1.0571,-1.0553,-1.0549,0,0,0,-1.0197,-1.0207,-1.023,-1.027,-1.0328,-1.0377,-1.0448,-1.0476,-1.0531,-1.0542,-1.0581,-1.0575,-1.0581,-1.0581,-1.0578,-1.0585,-1.0613,-1.0613,-1.0613,-1.0135,-1.0185,-1.0216,-1.0281,-1.032,-1.0395,-1.0431,-1.0482,-1.052,-1.0529,-1.0547,-1.053,-1.0529,-1.0527,-1.0534,-1.055,-1.055,-1.055,-1.055,-1.0131,-1.0155,-1.0208,-1.0257,-1.0311,-1.0352,-1.0426,-1.0452,-1.05,-1.052,-1.0527,-1.0544,-1.0521,-1.053,-1.0547,-1.0548,-1.0548,-1.0548,-1.0549,-1.0095,-1.0116,-1.0151,-1.0217,-1.0262,-1.0329,-1.0373,-1.042,-1.0465,-1.0472,-1.0498,-1.0499,-1.0505,-1.0481,-1.0481,-1.0481,-1.0481,-1.0481,-1.0481,-1.0044,-1.0085,-1.0116,-1.0181,-1.0215,-1.0266,-1.0344,-1.0379,-1.0429,-1.0461,-1.0461,-1.0499,-1.051,-1.0511,-1.048,-1.0481,-1.0481,-1.0481,-1.0481,-1.002,-1.0034,-1.0081,-1.0115,-1.0197,-1.024,-1.0302,-1.037,-1.0406,-1.0426,-1.0464,-1.0464,-1.0483,-1.0486,-1.0488,-1.0453,-1.0453,-1.0453,-1.0453,-0.9989,-1.0004,-1.0065,-1.0117,-1.0174,-1.0235,-1.0289,-1.0351,-1.0417,-1.0443,-1.0456,-1.0463,-1.0463,-1.0482,-1.0485,-1.0487,-1.0453,-1.0453,-1.0453,-0.9978,-1.0001,-1.0037,-1.0103,-1.0172,-1.023,-1.0283,-1.0341,-1.0419,-1.0454,-1.0465,-1.0465,-1.0476,-1.0477,-1.0509,-1.0513,-1.0518,0,0]}]]